Location: Lake Almanor
(40.2485°N, 121.1442°W)
Time: 23:59:03
(UTC-08:00)

STARLINK-1080 - Pass Details

Date: 28 January 2020
Orbit: 348 x 351 km, 53.0° (Epoch: 23 February)

Event Time Altitude Azimuth Distance (km) Brightness Sun altitude
Rises 18:32:25 0° 319° (NW) 2,163 7.1 -14.3°
Reaches altitude 10° 18:34:58 10° 344° (NNW) 1,318 5.6 -14.8°
Enters shadow 18:36:25 15° 13° (NNE) 1,059 4.8 -15.1°
